| time (UTC) | temp F | wind direction | speed MPH | gust MPH | rain 1hr in | rain 24hr in | rain mn in | humidity % | barometer mb |
| 20260505153334 | 95 | 0 | 0.0 | 0.0 | 0.00 | 0.00 | 0.00 | 44 | 975.0 |
| 20260505152309 | 96 | 0 | 0.0 | 0.0 | 0.00 | 0.00 | 0.00 | 43 | 975.0 |
| 20260505151244 | 96 | 0 | 0.0 | 0.0 | 0.00 | 0.00 | 0.00 | 44 | 975.0 |
| 20260505150219 | 96 | 0 | 0.0 | 0.0 | 0.00 | 0.00 | 0.00 | 43 | 975.0 |
| 20260505124652 | 98 | 0 | 0.0 | 0.0 | 0.00 | 0.00 | 0.00 | 39 | 973.0 |
| 20260505123626 | 98 | 0 | 0.0 | 0.0 | 0.00 | 0.00 | 0.00 | 40 | 973.0 |
| 20260505122601 | 97 | 0 | 0.0 | 0.0 | 0.00 | 0.00 | 0.00 | 40 | 972.0 |
| 20260505121536 | 98 | 0 | 0.0 | 0.0 | 0.00 | 0.00 | 0.00 | 40 | 972.0 |
| 20260505120512 | 98 | 0 | 0.0 | 0.0 | 0.00 | 0.00 | 0.00 | 41 | 972.0 |
| 20260505115443 | 99 | 0 | 0.0 | 0.0 | 0.00 | 0.00 | 0.00 | 41 | 972.0 |
| 20260505114418 | 99 | 0 | 0.0 | 0.0 | 0.00 | 0.00 | 0.00 | 40 | 972.0 |
| 20260505113353 | 99 | 0 | 0.0 | 0.0 | 0.00 | 0.00 | 0.00 | 40 | 972.0 |
| 20260505112328 | 101 | 0 | 0.0 | 0.0 | 0.00 | 0.00 | 0.00 | 39 | 972.0 |
| 20260505111302 | 101 | 0 | 0.0 | 0.0 | 0.00 | 0.00 | 0.00 | 40 | 971.0 |
| 20260505110238 | 101 | 0 | 0.0 | 0.0 | 0.00 | 0.00 | 0.00 | 39 | 971.0 |
| 20260505102050 | 100 | 0 | 0.0 | 0.0 | 0.00 | 0.00 | 0.00 | 41 | 971.0 |
| 20260505101021 | 103 | 0 | 0.0 | 0.0 | 0.00 | 0.00 | 0.00 | 37 | 972.0 |
| 20260505095848 | 104 | 0 | 0.0 | 0.0 | 0.00 | 0.00 | 0.00 | 37 | 972.0 |
| 20260505094823 | 103 | 0 | 0.0 | 0.0 | 0.00 | 0.00 | 0.00 | 37 | 972.0 |
| 20260505093759 | 103 | 0 | 0.0 | 0.0 | 0.00 | 0.00 | 0.00 | 37 | 972.0 |
| 20260505092733 | 104 | 0 | 0.0 | 0.0 | 0.00 | 0.00 | 0.00 | 36 | 972.0 |
| 20260505091708 | 103 | 0 | 0.0 | 0.0 | 0.00 | 0.00 | 0.00 | 37 | 972.0 |
| 20260505090642 | 103 | 0 | 0.0 | 0.0 | 0.00 | 0.00 | 0.00 | 38 | 972.0 |
| 20260505085617 | 103 | 0 | 0.0 | 0.0 | 0.00 | 0.00 | 0.00 | 38 | 972.0 |
| 20260505084552 | 102 | 0 | 0.0 | 0.0 | 0.00 | 0.00 | 0.00 | 39 | 972.0 |
| 20260505083527 | 100 | 0 | 0.0 | 0.0 | 0.00 | 0.00 | 0.00 | 41 | 972.0 |
| 20260505082502 | 103 | 0 | 0.0 | 0.0 | 0.00 | 0.00 | 0.00 | 38 | 972.0 |
| 20260505081436 | 100 | 0 | 0.0 | 0.0 | 0.00 | 0.00 | 0.00 | 41 | 973.0 |
| 20260505080412 | 102 | 0 | 0.0 | 0.0 | 0.00 | 0.00 | 0.00 | 39 | 973.0 |
| 20260505075346 | 102 | 0 | 0.0 | 0.0 | 0.00 | 0.00 | 0.00 | 39 | 973.0 |
| 20260505074319 | 102 | 0 | 0.0 | 0.0 | 0.00 | 0.00 | 0.00 | 39 | 973.0 |
| 20260505073254 | 103 | 0 | 0.0 | 0.0 | 0.00 | 0.00 | 0.00 | 38 | 973.0 |
| 20260505072229 | 104 | 0 | 0.0 | 0.0 | 0.00 | 0.00 | 0.00 | 37 | 974.0 |
| 20260505071205 | 104 | 0 | 0.0 | 0.0 | 0.00 | 0.00 | 0.00 | 37 | 974.0 |
| 20260505070140 | 105 | 0 | 0.0 | 0.0 | 0.00 | 0.00 | 0.00 | 37 | 974.0 |
| 20260505065116 | 101 | 0 | 0.0 | 0.0 | 0.00 | 0.00 | 0.00 | 40 | 974.0 |
| 20260505064051 | 103 | 0 | 0.0 | 0.0 | 0.00 | 0.00 | 0.00 | 38 | 974.0 |
| 20260505063026 | 104 | 0 | 0.0 | 0.0 | 0.00 | 0.00 | 0.00 | 38 | 975.0 |
| 20260505062001 | 103 | 0 | 0.0 | 0.0 | 0.00 | 0.00 | 0.00 | 38 | 975.0 |
| 20260505060936 | 103 | 0 | 0.0 | 0.0 | 0.00 | 0.00 | 0.00 | 38 | 975.0 |
| 20260505055912 | 101 | 0 | 0.0 | 0.0 | 0.00 | 0.00 | 0.00 | 41 | 976.0 |
| 20260505054847 | 102 | 0 | 0.0 | 0.0 | 0.00 | 0.00 | 0.00 | 40 | 976.0 |
| 20260505053821 | 100 | 0 | 0.0 | 0.0 | 0.00 | 0.00 | 0.00 | 42 | 976.0 |
| 20260505052756 | 99 | 0 | 0.0 | 0.0 | 0.00 | 0.00 | 0.00 | 44 | 976.0 |
| 20260505051731 | 98 | 0 | 0.0 | 0.0 | 0.00 | 0.00 | 0.00 | 44 | 977.0 |
| 20260505050704 | 97 | 0 | 0.0 | 0.0 | 0.00 | 0.00 | 0.00 | 46 | 977.0 |
| 20260505041458 | 98 | 0 | 0.0 | 0.0 | 0.00 | 0.00 | 0.00 | 45 | 978.0 |
| 20260505040433 | 98 | 0 | 0.0 | 0.0 | 0.00 | 0.00 | 0.00 | 45 | 978.0 |
| 20260505035407 | 97 | 0 | 0.0 | 0.0 | 0.00 | 0.00 | 0.00 | 46 | 978.0 |
| 20260505034342 | 97 | 0 | 0.0 | 0.0 | 0.00 | 0.00 | 0.00 | 46 | 978.0 |
| 20260505033317 | 95 | 0 | 0.0 | 0.0 | 0.00 | 0.00 | 0.00 | 49 | 978.0 |
| 20260505032252 | 94 | 0 | 0.0 | 0.0 | 0.00 | 0.00 | 0.00 | 49 | 978.0 |
| 20260505031226 | 95 | 0 | 0.0 | 0.0 | 0.00 | 0.00 | 0.00 | 50 | 978.0 |
| 20260505025307 | 93 | 0 | 0.0 | 0.0 | 0.00 | 0.00 | 0.00 | 52 | 978.0 |
| 20260505024242 | 93 | 0 | 0.0 | 0.0 | 0.00 | 0.00 | 0.00 | 52 | 978.0 |
| 20260505023217 | 92 | 0 | 0.0 | 0.0 | 0.00 | 0.00 | 0.00 | 54 | 978.0 |
| 20260505022153 | 91 | 0 | 0.0 | 0.0 | 0.00 | 0.00 | 0.00 | 57 | 978.0 |
| 20260505021127 | 91 | 0 | 0.0 | 0.0 | 0.00 | 0.00 | 0.00 | 56 | 978.0 |
| 20260505015038 | 90 | 0 | 0.0 | 0.0 | 0.00 | 0.00 | 0.00 | 58 | 978.0 |
| 20260505014012 | 90 | 0 | 0.0 | 0.0 | 0.00 | 0.00 | 0.00 | 60 | 978.0 |
| 20260505012947 | 89 | 0 | 0.0 | 0.0 | 0.00 | 0.00 | 0.00 | 61 | 978.0 |
| 20260505011920 | 88 | 0 | 0.0 | 0.0 | 0.00 | 0.00 | 0.00 | 63 | 978.0 |
| 20260505010854 | 87 | 0 | 0.0 | 0.0 | 0.00 | 0.00 | 0.00 | 63 | 978.0 |
| 20260505005829 | 88 | 0 | 0.0 | 0.0 | 0.00 | 0.00 | 0.00 | 62 | 978.0 |
| 20260505004804 | 87 | 0 | 0.0 | 0.0 | 0.00 | 0.00 | 0.00 | 63 | 978.0 |
| 20260505003739 | 87 | 0 | 0.0 | 0.0 | 0.00 | 0.00 | 0.00 | 64 | 978.0 |
| 20260505002714 | 87 | 0 | 0.0 | 0.0 | 0.00 | 0.00 | 0.00 | 62 | 978.0 |
| 20260505001649 | 87 | 0 | 0.0 | 0.0 | 0.00 | 0.00 | 0.00 | 64 | 978.0 |
| 20260505000624 | 87 | 0 | 0.0 | 0.0 | 0.00 | 0.00 | 0.00 | 63 | 977.0 |
| 20260504235559 | 87 | 0 | 0.0 | 0.0 | 0.00 | 0.00 | 0.00 | 63 | 977.0 |
| 20260504234534 | 87 | 0 | 0.0 | 0.0 | 0.00 | 0.00 | 0.00 | 63 | 977.0 |
| 20260504233509 | 87 | 0 | 0.0 | 0.0 | 0.00 | 0.00 | 0.00 | 63 | 977.0 |
| 20260504232444 | 88 | 0 | 0.0 | 0.0 | 0.00 | 0.00 | 0.00 | 61 | 977.0 |
| 20260504231419 | 87 | 0 | 0.0 | 0.0 | 0.00 | 0.00 | 0.00 | 63 | 977.0 |
| 20260504230354 | 87 | 0 | 0.0 | 0.0 | 0.00 | 0.00 | 0.00 | 63 | 977.0 |
| 20260504225328 | 86 | 0 | 0.0 | 0.0 | 0.00 | 0.00 | 0.00 | 65 | 976.0 |
| 20260504224302 | 85 | 0 | 0.0 | 0.0 | 0.00 | 0.00 | 0.00 | 67 | 976.0 |
| 20260504223237 | 84 | 0 | 0.0 | 0.0 | 0.00 | 0.00 | 0.00 | 68 | 976.0 |
| 20260504222212 | 85 | 0 | 0.0 | 0.0 | 0.00 | 0.00 | 0.00 | 67 | 976.0 |
| 20260504221147 | 86 | 0 | 0.0 | 0.0 | 0.00 | 0.00 | 0.00 | 66 | 976.0 |
| 20260504220122 | 87 | 0 | 0.0 | 0.0 | 0.00 | 0.00 | 0.00 | 64 | 976.0 |
| 20260504215057 | 88 | 0 | 0.0 | 0.0 | 0.00 | 0.00 | 0.00 | 62 | 976.0 |
| 20260504214033 | 88 | 0 | 0.0 | 0.0 | 0.00 | 0.00 | 0.00 | 61 | 976.0 |
| 20260504213008 | 88 | 0 | 0.0 | 0.0 | 0.00 | 0.00 | 0.00 | 61 | 976.0 |
| 20260504211943 | 89 | 0 | 0.0 | 0.0 | 0.00 | 0.00 | 0.00 | 60 | 976.0 |
| 20260504210918 | 89 | 0 | 0.0 | 0.0 | 0.00 | 0.00 | 0.00 | 59 | 976.0 |
| 20260504205852 | 90 | 0 | 0.0 | 0.0 | 0.00 | 0.00 | 0.00 | 59 | 976.0 |
| 20260504204827 | 90 | 0 | 0.0 | 0.0 | 0.00 | 0.00 | 0.00 | 59 | 976.0 |
| 20260504203803 | 89 | 0 | 0.0 | 0.0 | 0.00 | 0.00 | 0.00 | 59 | 976.0 |
| 20260504202737 | 89 | 0 | 0.0 | 0.0 | 0.00 | 0.00 | 0.00 | 59 | 976.0 |
| 20260504201712 | 88 | 0 | 0.0 | 0.0 | 0.00 | 0.00 | 0.00 | 61 | 976.0 |
| 20260504200646 | 90 | 0 | 0.0 | 0.0 | 0.00 | 0.00 | 0.00 | 59 | 976.0 |
| 20260504195620 | 89 | 0 | 0.0 | 0.0 | 0.00 | 0.00 | 0.00 | 60 | 976.0 |
| 20260504194551 | 90 | 0 | 0.0 | 0.0 | 0.00 | 0.00 | 0.00 | 59 | 977.0 |
| 20260504193524 | 92 | 0 | 0.0 | 0.0 | 0.00 | 0.00 | 0.00 | 56 | 977.0 |
| 20260504192310 | 92 | 0 | 0.0 | 0.0 | 0.00 | 0.00 | 0.00 | 55 | 977.0 |
| 20260504191245 | 91 | 0 | 0.0 | 0.0 | 0.00 | 0.00 | 0.00 | 54 | 977.0 |
| 20260504190219 | 91 | 0 | 0.0 | 0.0 | 0.00 | 0.00 | 0.00 | 54 | 977.0 |
| 20260504185154 | 91 | 0 | 0.0 | 0.0 | 0.00 | 0.00 | 0.00 | 55 | 977.0 |
| 20260504184129 | 90 | 0 | 0.0 | 0.0 | 0.00 | 0.00 | 0.00 | 56 | 977.0 |
| 20260504183103 | 92 | 0 | 0.0 | 0.0 | 0.00 | 0.00 | 0.00 | 54 | 977.0 |
| 20260504182039 | 90 | 0 | 0.0 | 0.0 | 0.00 | 0.00 | 0.00 | 56 | 977.0 |
| 20260504181014 | 89 | 0 | 0.0 | 0.0 | 0.00 | 0.00 | 0.00 | 57 | 977.0 |
| 20260504175948 | 92 | 0 | 0.0 | 0.0 | 0.00 | 0.00 | 0.00 | 56 | 977.0 |
| 20260504174923 | 92 | 0 | 0.0 | 0.0 | 0.00 | 0.00 | 0.00 | 57 | 977.0 |
| 20260504173857 | 91 | 0 | 0.0 | 0.0 | 0.00 | 0.00 | 0.00 | 58 | 977.0 |
| 20260504172832 | 92 | 0 | 0.0 | 0.0 | 0.00 | 0.00 | 0.00 | 56 | 977.0 |
| 20260504171808 | 92 | 0 | 0.0 | 0.0 | 0.00 | 0.00 | 0.00 | 56 | 977.0 |
| 20260504170743 | 92 | 0 | 0.0 | 0.0 | 0.00 | 0.00 | 0.00 | 57 | 977.0 |